Regional Weather Roundup
Issued by NWS

Home | Current Version | Previous Version | Text Only | Print | Product List | Glossary Off
Versions: 1 2 3 4 5 6 7 8 9 10 11 12 13 14 15 16 17 18 19 20 21 22 23 24 25 26 27 28 29 30 31 32 33 34 35 36 37 38 39 40 41 42 43 44 45 46 47 48 49 50

000
ASUS45 KTFX 201704
RWRMT
MONTANA HOURLY WEATHER ROUNDUP
NATIONAL WEATHER SERVICE GREAT FALLS MT
1104 AM MDT SAT SEP 20 2014

NOTE: "FAIR" INDICATES FEW OR NO CLOUDS BELOW 12000 FEET WITH NO
SIGNIFICANT WEATHER AND/OR OBSTRUCTIONS TO VISIBILITY.

* THESE STATIONS ARE NOT UNDER NWS QUALITY CONTROL. THEY DO NOT
   REPORT WEATHER SUCH AS PRECIPITATION OR FOG.

MTZ001>007-043-201800-
WEST OF THE DIVIDE
CITY           SKY/WX    TMP DP  RH WIND       PRES   REMARKS
KALISPELL      SUNNY     63  48  58 NE3       30.24F
MISSOULA       SUNNY     61  45  56 CALM      30.28F
BUTTE          SUNNY     57  41  55 CALM      30.34S
MULLAN PASS    PTCLDY    59  43  56 VRB3      30.33R
* ESSEX        N/A       59  46  62 E1         N/A
* LINCOLN      N/A       56  43  62 E2         N/A
* LOOKOUT PASS N/A       57  47  69 SE5        N/A
* POLSON       N/A       63  50  63 S2         N/A
* RONAN APT    SUNNY     66  48  52 N/A        N/A
* SEELEY LAKE  N/A       59  45  60 SW1        N/A
* THOMP F APT  PTCLDY    64  40  41 S3         N/A
$$

MTZ008-052>055-201800-
SOUTHWEST MONTANA
CITY           SKY/WX    TMP DP  RH WIND       PRES   REMARKS
BOZEMAN        SUNNY     61  45  56 CALM      30.30S
DILLON         SUNNY     59  41  51 CALM      30.31S
W YELLOWSTONE  SUNNY     54  41  62 NE3       30.38S
* THREE FORKS  SUNNY     61  27  27 N/A        N/A
* BOULDER HILL N/A       58  41  53 S4         N/A
* MONIDA PASS  N/A       56  39  53 NW2        N/A
* RAYNOLDS PAS N/A       57  54  90 VRB7       N/A
* WHITEHALL    N/A       60  45  58 SE2        N/A
* WISE RIVER   N/A       51  41  69 NW2        N/A
$$

MTZ009>010-012-014-046-048-049-054-201800-
EAST SLOPES AND CENTRAL MONTANA
CITY           SKY/WX    TMP DP  RH WIND       PRES   REMARKS
CUT BANK       SUNNY     63  43  48 VRB6      30.26S
GREAT FALLS    SUNNY     64  43  47 SE3       30.26R
HELENA         SUNNY     63  45  52 CALM      30.27S
MALMSTROM AFB  SUNNY     63  43  48 S3        30.27S
* CONRAD       PTCLDY    63  46  54 N/A        N/A
* EAST GLACIER N/A       57  42  57 S6         N/A
* MONARCH      N/A       59  38  46 W1         N/A
* PENDROY      N/A       61  47  60 SE7        N/A
* ROGERS PASS  N/A       56  42  60 SE9G14     N/A
* SAINT MARY   N/A       62  45  54 NE2        N/A
* SWEET GRASS  N/A       60  37  43 E4         N/A
$$

MTZ011-013-016-021-035-040-045-047-050-051-201800-
NORTH CENTRAL MONTANA
CITY           SKY/WX    TMP DP  RH WIND       PRES   REMARKS
HAVRE          SUNNY     64  46  52 SW9       30.23R
LEWISTOWN      SUNNY     64  43  47 W9        30.28R
* CHESTER      N/A       64  34  33 NE3        N/A
* GEYSER       N/A       65  45  49 W8         N/A
* JUDITH GAP   N/A       60  45  58 N9         N/A
* LOMA         N/A       62  45  54 NW1G6      N/A
$$

MTZ017>020-022>027-061-062-201800-
NORTHEAST MONTANA
CITY           SKY/WX    TMP DP  RH WIND       PRES   REMARKS
GLASGOW        PTCLDY    64  46  52 NW15      30.14R
JORDAN         SUNNY     66  45  47 W9        30.19R
SIDNEY         PTSUNNY   68  43  40 NW15      30.07S
WOLF POINT     PTSUNNY   68  45  44 NW26G33   30.11R
* BEAVER HILL  N/A       65  42  43 NW18G26    N/A
* CIRCLE       N/A       64  48  56 W10        N/A
* LINDSAY DVD  N/A       65  42  43 W15G23     N/A
$$

MTZ028>042-056>058-201800-
SOUTHCENTRAL AND SOUTHEAST MONTANA
CITY           SKY/WX    TMP DP  RH WIND       PRES   REMARKS
BAKER          SUNNY     66  46  49 NW17G24   30.13R
BILLINGS       SUNNY     70  39  32 N12       30.26R
LIVINGSTON     SUNNY     64  45  50 NW5       30.29S
MILES CITY     SUNNY     68  46  45 NW16      30.17R
* LAUREL APT   PTCLDY    70  43  38 NE5        N/A
* ROUNDUP APT  SUNNY     68  43  40 NW8        N/A
* ALZADA       N/A       68  44  42 W17G25     N/A
* HYSHAM       N/A       64  43  47 W6         N/A
* LAME DEER    N/A       61  41  48 NW12G20    N/A
* REED POINT   N/A       69  44  41 W6         N/A
* ROSCOE HILL  N/A       63  34  34 NE4G11     N/A
$$

REGIONAL REPORTS...DAKOTAS
CITY           SKY/WX    TMP DP  RH WIND       PRES   REMARKS
WILLISTON      PTCLDY    68  45  44 NW21G32   30.02R
DICKINSON      SUNNY     68  45  44 NW25G32   30.02R
BEACH          N/A       64  41  43 NW22G31   30.09R
CROSBY         SUNNY     64  45  50 NW24G32   30.00R
TIOGA          SUNNY     64  46  52 NW26G36   30.01R
WATFORD CITY   SUNNY     64  48  56 NW17G26   30.01R
BISMARCK       PTSUNNY   66  52  61 NW12G20   29.91R
GRAND FORKS    CLOUDY    66  57  73 S9        29.73F
FARGO          SUNNY     70  57  64 S10       29.78F
RAPID CITY     SUNNY     75  45  34 N21       30.12R
$$

REGIONAL REPORTS...WYOMING/IDAHO/WASHINGTON
CITY           SKY/WX    TMP DP  RH WIND       PRES   REMARKS
GILLETTE       SUNNY     68  41  38 NW20G26   30.24R
SHERIDAN       SUNNY     70  45  41 N15       30.25R
CODY           SUNNY    N/A N/A N/A N/A        N/A
YELLOWSTONE LA SUNNY     54  39  57 E3        30.45R
SALMON         SUNNY     59  43  56 CALM      30.26F
MULLAN PASS    PTCLDY    59  43  56 VRB3      30.33S
SAND POINT     SUNNY     64  52  65 N9        30.23R
SPOKANE        SUNNY     64  48  56 NE7       30.21R

$$




USA.gov is the U.S. government's official web portal to all federal, state and local government web resources and services.